SCP
0 0 0 0 0 0 0 0 0 0 0 0 0 0 0 0 0 0 0 0 0 0
0 0 0 0 0 0 0 0 0 0 0 0 0 0 0 0 0 0 0 0 0 0
0 0 0 0 0 0 0 0 0 0 0 0 0 0 0 0 0 0 0 0 0 0
0 0 0 0 0 0 0 0 0 0 0 0 0 0 0 0 0 0 0 0 0 0
0 0 0 0 0 0 0 0 0 0 0 0 0 0 0 0 0 0 0 0 0 0
0 0 0 0 0 0 0 0 0 0 0 0 0 0 0 0 0 0 0 0 0 0
0 0 0 0 0 0 0 0 0 0 0 0 0 0 0 0 0 0 0 0 0 0
0 0 0 0 0 0 0 0 0 0 0 0 0 0 0 0 0 0 0 0 0 -0
0 0 0 0 0 0 0 0 0 0 0 0 0 0 0 0 0 0 0 0 0 0
0 0 0 0 0 0 0 0 0 0 0 0 0 0 0 0 0 0 0 0 0 0
0 0 0 0 0 0 0 0 0 0 0 0 0 0 0 0 0 0 0 0 0 0
0 0 0 0 0 0 0 0 0 0 0 0 0 0 0 0 0 0 0 0 0 0
0 0 0 0 0 0 0 0 0 0 0 0 0 0 0 0 0 0 0 0 0 0
0 0 0 0 0 0 0 0 0 0 0 0 0 0 0 0 0 0 0 0 0 0
Wind_Speed_500mb
17 18 19 20 19 19 18 13 10 10 11 13 13 13 15 16 20 24 27 34 31 37
16 17 16 14 12 11 9 8 7 6 6 6 6 8 10 15 14 17 20 22 26 29
15 15 14 12 10 8 4 1 4 8 10 11 13 15 17 19 20 22 24 27 29 30
12 11 10 8 7 5 5 4 5 7 11 14 16 17 19 22 25 28 29 30 32 33
10 9 8 7 7 6 7 8 6 8 11 14 15 18 20 24 28 30 32 34 35 39
13 11 11 11 10 9 8 8 8 8 9 9 11 16 21 23 25 29 32 36 40 45
14 13 13 14 16 15 14 13 10 6 4 4 10 17 21 24 28 34 39 43 46 48
23 21 22 22 19 17 14 12 8 5 2 5 12 20 25 29 33 37 40 43 45 49
29 28 26 23 20 18 14 11 8 5 3 9 14 21 28 32 34 37 39 41 42 43
29 25 23 23 20 18 13 9 4 2 6 10 15 22 26 29 30 33 36 38 41 42
31 30 27 24 22 18 14 9 2 2 6 10 14 19 25 28 30 32 34 37 40 43
34 30 28 25 21 17 13 8 4 2 5 10 15 19 26 29 32 34 34 36 39 43
35 32 28 24 21 17 13 8 6 6 7 10 16 21 27 32 34 36 37 36 37 41
34 32 29 25 20 17 14 13 9 7 10 14 16 21 27 31 36 39 39 41 42 44
Wind_Direction_500mb
202 208 216 223 223 228 230 226 227 234 237 243 250 256 262 264 267 265 268 275 276 282
155 159 164 168 169 169 173 179 182 206 241 263 287 294 297 301 299 301 299 301 300 301
153 151 149 150 158 161 163 238 303 300 302 309 311 320 322 321 327 327 315 320 319 320
161 163 168 181 199 218 227 243 279 301 313 312 319 325 334 333 335 337 346 340 343 343
202 210 218 222 229 238 261 272 283 297 304 307 324 333 341 352 353 352 355 0 1 1
219 223 235 245 242 236 243 263 281 287 285 318 346 359 6 8 11 13 15 11 7 2
225 237 241 241 236 233 234 244 242 237 265 352 13 20 17 18 19 17 14 11 7 1
235 239 243 242 240 239 230 221 205 191 220 40 25 20 20 14 15 12 8 3 360 355
233 233 231 229 224 220 211 196 186 164 78 30 21 17 19 13 9 6 359 354 351 346
238 235 227 224 219 212 203 198 188 75 34 29 15 9 7 2 360 357 351 347 343 342
231 227 224 219 214 205 197 192 188 39 22 10 359 351 346 350 351 352 349 347 345 343
228 223 221 219 212 208 203 190 202 277 347 346 340 334 334 340 343 345 348 348 347 345
229 222 219 217 211 210 208 206 225 267 306 324 334 332 328 334 340 342 343 344 342 341
221 218 214 211 213 218 221 224 232 279 306 308 316 327 332 337 337 338 342 342 341 342
Wind_Speed_850mb
17 18 19 20 19 19 18 13 10 10 11 13 13 13 15 16 20 24 27 34 31 37
16 17 16 14 12 11 9 8 7 6 6 6 6 8 10 15 14 17 20 22 26 29
15 15 14 12 10 8 4 1 4 8 10 11 13 15 17 19 20 22 24 27 29 30
12 11 10 8 7 5 5 4 5 7 11 14 16 17 19 22 25 28 29 30 32 33
10 9 8 7 7 6 7 8 6 8 11 14 15 18 20 24 28 30 32 34 35 39
13 11 11 11 10 9 8 8 8 8 9 9 11 16 21 23 25 29 32 36 40 45
14 13 13 14 16 15 14 13 10 6 4 4 10 17 21 24 28 34 39 43 46 48
23 21 22 22 19 17 14 12 8 5 2 5 12 20 25 29 33 37 40 43 45 49
29 28 26 23 20 18 14 11 8 5 3 9 14 21 28 32 34 37 39 41 42 43
29 25 23 23 20 18 13 9 4 2 6 10 15 22 26 29 30 33 36 38 41 42
31 30 27 24 22 18 14 9 2 2 6 10 14 19 25 28 30 32 34 37 40 43
34 30 28 25 21 17 13 8 4 2 5 10 15 19 26 29 32 34 34 36 39 43
35 32 28 24 21 17 13 8 6 6 7 10 16 21 27 32 34 36 37 36 37 41
34 32 29 25 20 17 14 13 9 7 10 14 16 21 27 31 36 39 39 41 42 44
Wind_Direction_850mb
202 208 216 223 223 228 230 226 227 234 237 243 250 256 262 264 267 265 268 275 276 282
155 159 164 168 169 169 173 179 182 206 241 263 287 294 297 301 299 301 299 301 300 301
153 151 149 150 158 161 163 238 303 300 302 309 311 320 322 321 327 327 315 320 319 320
161 163 168 181 199 218 227 243 279 301 313 312 319 325 334 333 335 337 346 340 343 343
202 210 218 222 229 238 261 272 283 297 304 307 324 333 341 352 353 352 355 0 1 1
219 223 235 245 242 236 243 263 281 287 285 318 346 359 6 8 11 13 15 11 7 2
225 237 241 241 236 233 234 244 242 237 265 352 13 20 17 18 19 17 14 11 7 1
235 239 243 242 240 239 230 221 205 191 220 40 25 20 20 14 15 12 8 3 360 355
233 233 231 229 224 220 211 196 186 164 78 30 21 17 19 13 9 6 359 354 351 346
238 235 227 224 219 212 203 198 188 75 34 29 15 9 7 2 360 357 351 347 343 342
231 227 224 219 214 205 197 192 188 39 22 10 359 351 346 350 351 352 349 347 345 343
228 223 221 219 212 208 203 190 202 277 347 346 340 334 334 340 343 345 348 348 347 345
229 222 219 217 211 210 208 206 225 267 306 324 334 332 328 334 340 342 343 344 342 341
221 218 214 211 213 218 221 224 232 279 306 308 316 327 332 337 337 338 342 342 341 342